FW9463 Weather Reports


Display with metric or nautical units.
time (UTC)temp
F
wind
direction
speed
MPH
gust
MPH
rain 1hr
in
rain 24hr
in
rain mn
in
humidity
%
barometer
mb
20260510011125 63 81 0.0 0.0 0.00 0.00 0.00 80 1004.6
20260510010621 63 81 0.0 0.0 0.00 0.00 0.00 79 1004.8
20260510010119 63 81 0.0 0.0 0.00 0.00 0.00 79 1004.8
20260510005614 64 172 0.0 0.0 0.00 0.00 0.00 78 1004.6
20260510005111 64 172 0.0 0.0 0.00 0.00 0.00 74 1004.5
20260510004609 64 172 0.0 0.0 0.00 0.00 0.00 74 1004.6
20260510004107 64 172 0.0 0.0 0.00 0.00 0.00 73 1004.5
20260510003604 65 172 0.0 0.0 0.00 0.00 0.00 71 1004.6
20260510003100 66 172 0.0 0.0 0.00 0.00 0.00 70 1004.6
20260510002554 66 172 0.0 0.0 0.00 0.00 0.00 70 1004.4
20260510002052 67 172 0.0 0.0 0.00 0.00 0.00 69 1004.6
20260510001549 67 172 0.0 0.0 0.00 0.00 0.00 66 1004.4
20260510001048 68 172 0.0 0.0 0.00 0.00 0.00 65 1004.2
20260510000542 68 162 0.0 0.0 0.00 0.00 0.00 64 1004.5
20260510000039 69 162 0.0 0.0 0.00 0.00 0.00 62 1004.2
20260509235536 69 162 0.0 0.0 0.00 0.00 0.00 62 1004.0
20260509235033 70 162 0.0 2.0 0.00 0.00 0.00 61 1004.2
20260509234529 71 187 0.0 0.0 0.00 0.00 0.00 60 1004.2
20260509234027 71 187 0.0 0.0 0.00 0.00 0.00 62 1004.4
20260509233524 72 173 0.0 0.0 0.00 0.00 0.00 58 1004.1
20260509233021 73 195 0.0 0.0 0.00 0.00 0.00 55 1003.9
20260509232518 73 154 0.0 2.0 0.00 0.00 0.00 53 1003.8
20260509232015 73 172 0.0 0.0 0.00 0.00 0.00 53 1004.1
20260509231511 74 172 0.0 0.0 0.00 0.00 0.00 52 1004.1
20260509231009 74 157 0.0 3.0 0.00 0.00 0.00 51 1004.1
20260509230505 74 172 0.0 0.0 0.00 0.00 0.00 51 1004.1
20260509230002 74 180 0.0 2.0 0.00 0.00 0.00 50 1004.0
20260509225458 75 106 0.0 1.0 0.00 0.00 0.00 51 1004.1
20260509224954 74 0 0.0 1.0 0.00 0.00 0.00 51 1003.9
20260509224449 75 162 0.0 2.0 0.00 0.00 0.00 48 1004.0
20260509223946 75 117 0.0 2.0 0.00 0.00 0.00 47 1004.0
20260509223443 75 233 0.0 2.0 0.00 0.00 0.00 46 1004.3
20260509222940 75 254 0.0 0.0 0.00 0.00 0.00 48 1004.2
20260509222436 75 254 0.0 1.0 0.00 0.00 0.00 47 1004.2
20260509221931 75 270 0.0 0.0 0.00 0.00 0.00 48 1004.1
20260509221429 75 270 0.0 0.0 0.00 0.00 0.00 49 1004.3
20260509220924 75 340 0.0 0.0 0.00 0.00 0.00 48 1004.1
20260509220420 75 165 0.0 0.0 0.00 0.00 0.00 48 1004.3
20260509215917 74 240 0.0 2.0 0.00 0.00 0.00 48 1003.9
20260509215412 75 90 0.0 0.0 0.00 0.00 0.00 49 1004.3
20260509214910 75 90 0.0 0.0 0.00 0.00 0.00 49 1004.1
20260509214407 74 254 0.0 3.0 0.00 0.00 0.00 48 1003.9
20260509213904 75 252 0.0 2.0 0.00 0.00 0.00 48 1004.1
20260509213359 75 246 0.0 4.0 0.00 0.00 0.00 48 1003.9
20260509212857 75 280 2.0 3.0 0.00 0.00 0.00 45 1003.9
20260509212354 77 297 0.0 4.0 0.00 0.00 0.00 46 1003.9
20260509211850 77 266 3.0 3.0 0.00 0.00 0.00 46 1004.0
20260509211346 76 234 0.0 4.0 0.00 0.00 0.00 47 1003.8
20260509210843 76 254 0.0 2.0 0.00 0.00 0.00 50 1003.8
20260509210341 76 261 0.0 5.0 0.00 0.00 0.00 46 1003.9
20260509205840 77 180 0.0 10.0 0.00 0.00 0.00 48 1004.0
20260509205335 75 246 2.0 2.0 0.00 0.00 0.00 49 1003.9
20260509204832 77 188 0.0 3.0 0.00 0.00 0.00 47 1003.8
20260509204328 78 255 0.0 8.0 0.00 0.00 0.00 46 1003.8
20260509203824 78 281 0.0 6.0 0.00 0.00 0.00 49 1003.8
20260509203321 77 270 3.0 7.0 0.00 0.00 0.00 47 1004.0
20260509202817 77 294 0.0 7.0 0.00 0.00 0.00 45 1004.0
20260509202314 78 340 0.0 5.0 0.00 0.00 0.00 48 1003.9
20260509201813 78 174 4.0 5.0 0.00 0.00 0.00 45 1003.9
20260509201310 76 270 1.0 3.0 0.00 0.00 0.00 48 1003.9
20260509200807 77 253 2.0 3.0 0.00 0.00 0.00 49 1004.0
20260509200302 75 276 0.0 6.0 0.00 0.00 0.00 50 1003.9
20260509195758 77 289 1.0 7.0 0.00 0.00 0.00 52 1004.1
20260509195254 75 65 2.0 5.0 0.00 0.00 0.00 51 1004.1
20260509194748 74 355 0.0 6.0 0.00 0.00 0.00 53 1004.4
20260509194244 73 294 0.0 2.0 0.00 0.00 0.00 57 1004.2
20260509193741 72 0 0.0 3.0 0.00 0.00 0.00 55 1004.6
20260509193241 73 292 2.0 3.0 0.00 0.00 0.00 55 1004.6
20260509192738 73 270 1.0 5.0 0.00 0.00 0.00 54 1004.6
20260509192232 73 300 2.0 4.0 0.00 0.00 0.00 57 1004.7
20260509191728 72 294 3.0 5.0 0.00 0.00 0.00 56 1004.8
20260509191225 72 220 0.0 6.0 0.00 0.00 0.00 56 1004.9
20260509190721 73 151 2.0 3.0 0.00 0.00 0.00 56 1005.0
20260509190218 71 90 1.0 6.0 0.00 0.00 0.00 59 1005.2
20260509185716 71 294 5.0 8.0 0.00 0.00 0.00 58 1005.1
20260509185212 71 186 1.0 3.0 0.00 0.00 0.00 59 1005.0
20260509184709 71 180 5.0 6.0 0.00 0.00 0.00 59 1005.0
20260509184207 71 184 0.0 4.0 0.00 0.00 0.00 62 1005.1
20260509183703 71 340 1.0 5.0 0.00 0.00 0.00 60 1005.2
20260509183158 71 157 0.0 2.0 0.00 0.00 0.00 59 1005.0
20260509182654 70 268 5.0 5.0 0.00 0.00 0.00 59 1005.2
20260509182152 71 311 0.0 4.0 0.00 0.00 0.00 57 1005.4
20260509181649 71 265 0.0 5.0 0.00 0.00 0.00 59 1005.4
20260509181147 70 90 0.0 4.0 0.00 0.00 0.00 59 1005.7
20260509180643 70 270 0.0 2.0 0.00 0.00 0.00 60 1005.7
20260509180139 70 7 0.0 3.0 0.00 0.00 0.00 61 1005.7
20260509175635 69 225 0.0 3.0 0.00 0.00 0.00 60 1006.1
20260509175132 70 195 0.0 3.0 0.00 0.00 0.00 59 1006.1
20260509174628 69 253 3.0 4.0 0.00 0.00 0.00 58 1005.9
20260509174123 69 18 1.0 5.0 0.00 0.00 0.00 60 1006.1
20260509173619 68 337 1.0 6.0 0.00 0.00 0.00 61 1006.1
20260509173115 68 258 3.0 5.0 0.00 0.00 0.00 60 1006.2
20260509172612 68 283 2.0 7.0 0.00 0.00 0.00 61 1006.1
20260509172108 69 106 4.0 4.0 0.00 0.00 0.00 59 1006.3
20260509171604 69 279 2.0 6.0 0.00 0.00 0.00 59 1006.2
20260509171100 70 0 3.0 3.0 0.00 0.00 0.00 60 1006.2
20260509170557 69 297 1.0 5.0 0.00 0.00 0.00 59 1006.1
20260509170053 70 0 1.0 5.0 0.00 0.00 0.00 58 1006.1
20260509165551 70 348 2.0 3.0 0.00 0.00 0.00 58 1006.0
20260509165047 70 229 0.0 4.0 0.00 0.00 0.00 59 1006.0
20260509164543 69 348 2.0 3.0 0.00 0.00 0.00 60 1006.1
20260509164044 69 270 0.0 5.0 0.00 0.00 0.00 61 1006.3
20260509163543 68 222 3.0 4.0 0.00 0.00 0.00 62 1006.3
20260509163037 68 141 4.0 11.0 0.00 0.00 0.00 61 1006.4
20260509162535 68 63 2.0 3.0 0.00 0.00 0.00 62 1006.3
20260509162031 67 327 0.0 7.0 0.00 0.00 0.00 62 1006.5
20260509161527 67 341 0.0 7.0 0.00 0.00 0.00 61 1006.7
20260509161022 68 266 2.0 3.0 0.00 0.00 0.00 61 1006.5
20260509160518 68 312 2.0 3.0 0.00 0.00 0.00 60 1006.6
20260509160014 68 49 2.0 4.0 0.00 0.00 0.00 60 1006.5
20260509155510 68 254 1.0 4.0 0.00 0.00 0.00 62 1006.4
20260509155006 68 352 0.0 3.0 0.00 0.00 0.00 61 1006.4
20260509154503 68 344 3.0 7.0 0.00 0.00 0.00 60 1006.4
20260509154000 68 178 4.0 10.0 0.00 0.00 0.00 59 1006.7
20260509153457 69 135 2.0 8.0 0.00 0.00 0.00 60 1006.7
20260509152954 69 164 3.0 4.0 0.00 0.00 0.00 58 1006.8
20260509152449 69 216 0.0 8.0 0.00 0.00 0.00 60 1006.6
20260509151947 67 196 3.0 4.0 0.00 0.00 0.00 60 1007.0
20260509151443 66 36 0.0 3.0 0.00 0.00 0.00 60 1006.7
20260509150941 65 270 3.0 3.0 0.00 0.00 0.00 61 1006.9
20260509150438 66 180 2.0 4.0 0.00 0.00 0.00 63 1006.9
20260509145936 66 277 1.0 3.0 0.00 0.00 0.00 60 1006.8
20260509145431 67 176 2.0 4.0 0.00 0.00 0.00 60 1006.9
20260509144927 66 173 0.0 3.0 0.00 0.00 0.00 62 1006.8
20260509144424 66 140 6.0 7.0 0.00 0.00 0.00 61 1007.0
20260509143921 64 233 2.0 3.0 0.00 0.00 0.00 62 1007.1
20260509143418 64 237 0.0 6.0 0.00 0.00 0.00 62 1007.3
20260509142914 63 262 3.0 5.0 0.00 0.00 0.00 62 1007.4
20260509142411 64 324 3.0 5.0 0.00 0.00 0.00 64 1007.3
20260509141906 64 151 0.0 5.0 0.00 0.00 0.00 63 1007.1
20260509141404 63 322 3.0 5.0 0.00 0.00 0.00 62 1007.4
20260509140900 64 180 0.0 4.0 0.00 0.00 0.00 63 1007.5
20260509140357 64 107 0.0 10.0 0.00 0.00 0.00 62 1007.5
20260509135855 62 342 3.0 8.0 0.00 0.00 0.00 63 1007.4
20260509135352 62 259 0.0 4.0 0.00 0.00 0.00 64 1007.4
20260509134850 61 355 0.0 4.0 0.00 0.00 0.00 65 1007.5
20260509134347 61 312 2.0 3.0 0.00 0.00 0.00 65 1007.2
20260509133843 61 159 2.0 3.0 0.00 0.00 0.00 64 1007.5
20260509133340 60 309 3.0 3.0 0.00 0.00 0.00 65 1007.4
20260509132839 59 283 3.0 4.0 0.00 0.00 0.00 66 1007.5
20260509132337 59 270 0.0 2.0 0.00 0.00 0.00 66 1007.3
20260509131834 59 180 1.0 3.0 0.00 0.00 0.00 68 1007.3
20260509131330 59 102 0.0 3.0 0.00 0.00 0.00 67 1007.2
20260509130827 58 96 1.0 2.0 0.00 0.00 0.00 67 1007.4
20260509130323 58 148 0.0 5.0 0.00 0.00 0.00 67 1007.6
20260509125819 59 90 0.0 3.0 0.00 0.00 0.00 67 1007.4
20260509125316 58 135 0.0 2.0 0.00 0.00 0.00 67 1007.6
20260509124812 58 135 2.0 3.0 0.00 0.00 0.00 68 1007.3
20260509124309 58 112 0.0 2.0 0.00 0.00 0.00 67 1007.7
20260509123808 58 99 0.0 4.0 0.00 0.00 0.00 66 1007.5
20260509123304 58 0 0.0 0.0 0.00 0.00 0.00 68 1007.4
20260509122800 58 103 1.0 4.0 0.00 0.00 0.00 66 1007.5
20260509122257 58 190 0.0 3.0 0.00 0.00 0.00 68 1007.7
20260509121754 57 99 0.0 0.0 0.00 0.00 0.00 67 1007.7
20260509121251 57 285 2.0 2.0 0.00 0.00 0.00 67 1007.5
20260509120749 57 147 0.0 4.0 0.00 0.00 0.00 66 1007.6
20260509120247 57 180 2.0 2.0 0.00 0.00 0.00 66 1007.6
20260509115745 57 0 0.0 2.0 0.00 0.00 0.00 67 1007.4
20260509115241 57 157 0.0 2.0 0.00 0.00 0.00 69 1007.5
20260509114739 57 82 0.0 2.0 0.00 0.00 0.00 67 1007.3
20260509114238 56 57 2.0 2.0 0.00 0.00 0.00 68 1007.4
20260509113736 56 5 0.0 2.0 0.00 0.00 0.00 67 1007.8
20260509113233 56 8 0.0 0.0 0.00 0.00 0.00 68 1007.5
20260509112730 56 270 0.0 0.0 0.00 0.00 0.00 67 1007.5
20260509112227 56 145 0.0 4.0 0.00 0.00 0.00 67 1007.4
20260509111724 56 90 0.0 0.0 0.00 0.00 0.00 68 1007.7
20260509111221 56 180 0.0 3.0 0.00 0.00 0.00 68 1007.3
20260509110718 56 169 0.0 2.0 0.00 0.00 0.00 67 1007.2
20260509110215 56 171 2.0 2.0 0.00 0.00 0.00 67 1007.2
20260509105713 55 156 2.0 3.0 0.00 0.00 0.00 66 1007.2
20260509105210 55 173 0.0 2.0 0.00 0.00 0.00 66 1007.1
20260509104707 55 15 0.0 1.0 0.00 0.00 0.00 67 1007.2
20260509104204 55 139 0.0 2.0 0.00 0.00 0.00 67 1007.3
20260509103702 55 23 0.0 1.0 0.00 0.00 0.00 67 1007.3
20260509103159 55 152 2.0 3.0 0.00 0.00 0.00 66 1007.0
20260509102657 55 157 1.0 2.0 0.00 0.00 0.00 66 1007.1
20260509102154 55 106 0.0 2.0 0.00 0.00 0.00 66 1007.0
20260509101650 55 337 0.0 1.0 0.00 0.00 0.00 66 1007.0
20260509101147 55 151 0.0 1.0 0.00 0.00 0.00 66 1007.2
20260509100644 56 320 0.0 2.0 0.00 0.00 0.00 66 1006.8
20260509100141 56 145 0.0 0.0 0.00 0.00 0.00 65 1007.2
20260509095638 56 145 0.0 1.0 0.00 0.00 0.00 64 1006.9
20260509095135 56 286 0.0 2.0 0.00 0.00 0.00 64 1007.0
20260509094631 56 212 0.0 2.0 0.00 0.00 0.00 64 1006.9
20260509094129 56 279 0.0 2.0 0.00 0.00 0.00 64 1006.7
20260509093627 56 74 0.0 3.0 0.00 0.00 0.00 63 1006.9
20260509093124 56 173 0.0 0.0 0.00 0.00 0.00 64 1006.8
20260509092622 56 286 1.0 2.0 0.00 0.00 0.00 63 1007.2
20260509092120 56 246 0.0 2.0 0.00 0.00 0.00 63 1007.2
20260509091618 56 277 0.0 4.0 0.00 0.00 0.00 63 1007.4
20260509091114 57 292 2.0 4.0 0.00 0.00 0.00 63 1007.3
20260509090612 56 7 1.0 3.0 0.00 0.00 0.00 63 1007.5
20260509090109 56 274 3.0 5.0 0.00 0.00 0.00 63 1007.2
20260509085606 56 340 0.0 3.0 0.00 0.00 0.00 63 1007.5
20260509085102 56 15 0.0 6.0 0.00 0.00 0.00 63 1007.4
20260509084559 57 5 0.0 2.0 0.00 0.00 0.00 63 1007.3
20260509084056 57 32 0.0 2.0 0.00 0.00 0.00 64 1007.3
20260509083554 57 11 0.0 5.0 0.00 0.00 0.00 62 1007.3
20260509083050 56 84 0.0 4.0 0.00 0.00 0.00 63 1007.4
20260509082548 56 7 0.0 3.0 0.00 0.00 0.00 63 1007.3
20260509082044 57 8 3.0 9.0 0.00 0.00 0.00 63 1007.7
20260509081542 56 32 3.0 3.0 0.00 0.00 0.00 64 1007.7
20260509081038 56 164 3.0 7.0 0.00 0.00 0.00 63 1007.4
20260509080536 56 35 0.0 3.0 0.00 0.00 0.00 64 1007.8
20260509080034 56 63 0.0 4.0 0.00 0.00 0.00 63 1007.6
20260509075531 56 5 0.0 6.0 0.00 0.00 0.00 64 1007.6
20260509075029 56 165 1.0 3.0 0.00 0.00 0.00 64 1007.9
20260509074526 56 60 1.0 2.0 0.00 0.00 0.00 63 1008.0
20260509074023 56 112 2.0 3.0 0.00 0.00 0.00 63 1008.0
20260509073519 56 257 2.0 5.0 0.00 0.00 0.00 63 1007.7
20260509073016 56 306 1.0 3.0 0.00 0.00 0.00 63 1008.0
20260509072512 56 45 0.0 3.0 0.00 0.00 0.00 63 1007.8
20260509072009 56 8 0.0 3.0 0.00 0.00 0.00 63 1007.7
20260509071506 56 342 1.0 3.0 0.00 0.00 0.00 62 1007.8
20260509071003 56 172 0.0 3.0 0.00 0.00 0.00 62 1007.8
20260509070500 56 106 1.0 2.0 0.00 0.00 0.00 62 1007.7
20260509065956 56 161 0.0 2.0 0.00 0.00 0.00 61 1007.9
20260509065452 56 199 0.0 4.0 0.00 0.00 0.00 61 1007.9
20260509064948 56 66 0.0 2.0 0.00 0.00 0.00 62 1007.9
20260509064446 56 144 0.0 3.0 0.00 0.00 0.00 61 1007.7
20260509063944 56 294 0.0 3.0 0.00 0.00 0.00 62 1008.0
20260509063439 55 101 2.0 3.0 0.00 0.00 0.00 63 1007.8
20260509062936 55 99 0.0 5.0 0.00 0.00 0.00 63 1008.0
20260509062434 55 172 0.0 3.0 0.00 0.00 0.00 63 1008.1
20260509061931 55 32 0.0 2.0 0.00 0.00 0.00 64 1008.1
20260509061428 55 105 1.0 4.0 0.00 0.00 0.00 65 1008.1
20260509060925 54 159 0.0 3.0 0.00 0.00 0.00 66 1008.1
20260509060423 54 151 0.0 2.0 0.00 0.00 0.00 69 1008.1
20260509055917 55 151 1.0 2.0 0.00 0.00 0.00 67 1008.3
20260509055413 54 82 0.0 1.0 0.00 0.00 0.00 68 1008.1
20260509054910 54 66 0.0 2.0 0.00 0.00 0.00 67 1008.4
20260509054407 54 99 0.0 0.0 0.00 0.00 0.00 66 1008.3
20260509053905 54 120 0.0 1.0 0.00 0.00 0.00 65 1008.0
20260509053402 54 90 0.0 0.0 0.00 0.00 0.00 65 1008.2
20260509052900 54 81 0.0 1.0 0.00 0.00 0.00 67 1008.2
20260509052357 53 90 0.0 0.0 0.00 0.00 0.00 66 1008.4
20260509051855 53 165 0.0 2.0 0.00 0.00 0.00 67 1008.3
20260509051353 53 82 0.0 2.0 0.00 0.00 0.00 66 1008.5
20260509050849 53 151 0.0 1.0 0.00 0.00 0.00 66 1008.3
20260509050346 54 60 0.0 1.0 0.00 0.00 0.00 65 1008.3
20260509045843 54 180 0.0 0.0 0.00 0.00 0.00 64 1008.2
20260509045340 54 90 0.0 1.0 0.00 0.00 0.00 63 1008.2
20260509044837 55 151 2.0 2.0 0.00 0.00 0.00 63 1008.2
20260509044335 55 114 2.0 2.0 0.00 0.00 0.00 63 1008.1
20260509043831 55 106 0.0 2.0 0.00 0.00 0.00 62 1008.3
20260509043327 55 145 0.0 1.0 0.00 0.00 0.00 61 1008.4
20260509042823 56 106 0.0 0.0 0.00 0.00 0.00 61 1008.4
20260509042320 56 174 0.0 1.0 0.00 0.00 0.00 60 1008.3
20260509041816 57 166 0.0 2.0 0.00 0.00 0.00 59 1008.2
20260509041314 57 90 0.0 0.0 0.00 0.00 0.00 59 1008.3
20260509040812 57 346 0.0 1.0 0.00 0.00 0.00 60 1008.2
20260509040309 57 159 0.0 2.0 0.00 0.00 0.00 60 1008.4
20260509035806 56 14 0.0 1.0 0.00 0.00 0.00 60 1008.3
20260509035306 56 8 0.0 0.0 0.00 0.00 0.00 60 1008.1
20260509034759 57 0 0.0 0.0 0.00 0.00 0.00 63 1008.4
20260509034257 57 165 0.0 1.0 0.00 0.00 0.00 60 1008.2
20260509033754 57 348 0.0 1.0 0.00 0.00 0.00 60 1008.3
20260509033251 57 7 0.0 2.0 0.00 0.00 0.00 59 1008.4
20260509032748 57 251 0.0 3.0 0.00 0.00 0.00 59 1008.2
20260509032244 56 106 1.0 1.0 0.00 0.00 0.00 60 1008.6
20260509031742 57 7 0.0 0.0 0.00 0.00 0.00 62 1008.4
20260509031240 56 99 0.0 0.0 0.00 0.00 0.00 60 1008.5
20260509030737 56 81 0.0 0.0 0.00 0.00 0.00 60 1008.4
20260509030235 56 23 0.0 2.0 0.00 0.00 0.00 61 1008.6
20260509025732 56 151 0.0 0.0 0.00 0.00 0.00 62 1008.6
20260509025227 56 151 0.0 1.0 0.00 0.00 0.00 61 1008.8
20260509024722 56 90 0.0 0.0 0.00 0.00 0.00 61 1008.6
20260509024218 56 170 0.0 2.0 0.00 0.00 0.00 61 1008.4
20260509023716 57 120 0.0 0.0 0.00 0.00 0.00 61 1008.7
20260509023213 57 90 0.0 1.0 0.00 0.00 0.00 60 1008.7
20260509022709 57 66 0.0 0.0 0.00 0.00 0.00 60 1008.5
20260509022207 57 114 0.0 1.0 0.00 0.00 0.00 60 1008.6
20260509021704 58 81 0.0 0.0 0.00 0.00 0.00 59 1008.6
20260509021201 58 81 0.0 0.0 0.00 0.00 0.00 58 1008.6
20260509020659 59 99 0.0 0.0 0.00 0.00 0.00 57 1008.4
20260509020156 59 0 0.0 1.0 0.00 0.00 0.00 56 1008.2
20260509015654 59 90 0.0 1.0 0.00 0.00 0.00 56 1008.3
20260509015152 59 15 0.0 1.0 0.00 0.00 0.00 56 1008.3
20260509014648 59 106 0.0 1.0 0.00 0.00 0.00 56 1008.4
20260509014144 59 97 0.0 1.0 0.00 0.00 0.00 56 1008.3
20260509013642 59 177 0.0 3.0 0.00 0.00 0.00 56 1008.3
20260509013138 59 90 0.0 1.0 0.00 0.00 0.00 56 1008.1
20260509012634 59 90 0.0 1.0 0.00 0.00 0.00 56 1008.2
20260509012131 59 106 0.0 1.0 0.00 0.00 0.00 57 1008.4
20260509011629 59 90 0.0 0.0 0.00 0.00 0.00 57 1008.2